BWA1852 TTPP-TNCC

Flight info

Callsign BWA1852
Flight time 1h 50m
Altitude 34000
Route ANADA DCT RAYAS DCT SCAPA SCAPA1B
Aircraft B738/M-SDE2E3FGHIRWXY/LB1

Departure

Time 2026-04-29 17:25
Airport Piarco International Airport (TTPP)

Arrival

Time 2026-04-29 19:15
Airport Hato International Airport (TNCC)
Time Latitude Longitude Altitude Speed Heading
2026-04-29 17:24 10.76752 -61.38174 9424 ft 303 kts 330°
2026-04-29 17:25 10.78528 -61.39312 10149 ft 306 kts 330°
2026-04-29 17:25 10.80365 -61.40487 10642 ft 319 kts 330°
2026-04-29 17:25 10.82297 -61.41720 11059 ft 335 kts 330°
2026-04-29 17:25 10.84333 -61.43020 11465 ft 350 kts 330°
2026-04-29 17:26 10.86406 -61.44345 11796 ft 365 kts 330°
2026-04-29 17:26 10.88603 -61.45750 12104 ft 380 kts 330°
2026-04-29 17:26 10.90889 -61.47213 12401 ft 395 kts 330°
2026-04-29 17:26 10.93303 -61.48759 12741 ft 408 kts 330°
2026-04-29 17:27 10.95691 -61.50291 13386 ft 410 kts 330°
2026-04-29 17:27 10.98154 -61.51873 13974 ft 414 kts 330°
2026-04-29 17:27 11.00598 -61.53444 14585 ft 418 kts 329°
2026-04-29 17:27 11.03096 -61.55048 15192 ft 422 kts 329°
2026-04-29 17:28 11.05596 -61.56654 15788 ft 426 kts 329°
2026-04-29 17:28 11.08133 -61.58284 16362 ft 430 kts 329°
2026-04-29 17:28 11.10679 -61.59919 16932 ft 433 kts 328°
2026-04-29 17:28 11.13262 -61.61578 17499 ft 437 kts 328°
2026-04-29 17:29 11.15825 -61.63225 17994 ft 441 kts 328°
2026-04-29 17:29 11.18444 -61.64909 18517 ft 445 kts 328°
2026-04-29 17:29 11.21099 -61.66615 19037 ft 449 kts 328°
2026-04-29 17:29 11.23764 -61.68328 19500 ft 454 kts 328°
2026-04-29 17:30 11.26448 -61.70052 19998 ft 457 kts 328°
2026-04-29 17:30 11.29149 -61.71788 20481 ft 461 kts 328°
2026-04-29 17:30 11.31912 -61.73564 20923 ft 465 kts 328°
2026-04-29 17:30 11.34647 -61.75323 21395 ft 469 kts 328°
2026-04-29 17:31 11.37456 -61.77130 21816 ft 473 kts 328°
2026-04-29 17:31 11.40239 -61.78921 22277 ft 476 kts 328°
2026-04-29 17:31 11.43072 -61.80747 22754 ft 479 kts 328°
2026-04-29 17:31 11.45878 -61.82555 23360 ft 479 kts 327°
2026-04-29 17:32 11.48748 -61.84404 23887 ft 480 kts 327°
2026-04-29 17:32 11.51591 -61.86237 24369 ft 482 kts 327°
2026-04-29 17:32 11.54447 -61.88078 24934 ft 482 kts 327°
2026-04-29 17:32 11.57254 -61.89889 25416 ft 483 kts 327°
2026-04-29 17:33 11.60107 -61.91729 25935 ft 484 kts 327°
2026-04-29 17:33 11.63003 -61.93598 26446 ft 484 kts 327°
2026-04-29 17:33 11.65845 -61.95432 27024 ft 482 kts 327°
2026-04-29 17:33 11.68637 -61.97234 27919 ft 473 kts 327°
2026-04-29 17:34 11.71403 -61.99020 28730 ft 465 kts 327°
2026-04-29 17:34 11.74154 -62.00797 29322 ft 463 kts 327°
2026-04-29 17:34 11.76888 -62.02562 29859 ft 462 kts 327°
2026-04-29 17:34 11.79594 -62.04310 30453 ft 459 kts 327°
2026-04-29 17:35 11.84103 -62.07224 31414 ft 455 kts 327°
2026-04-29 17:35 11.87697 -62.09548 32074 ft 453 kts 326°
2026-04-29 17:35 11.90388 -62.11289 32580 ft 451 kts 326°
2026-04-29 17:36 11.93013 -62.12988 33109 ft 449 kts 326°
2026-04-29 17:36 11.95646 -62.14691 33704 ft 446 kts 326°
2026-04-29 17:36 11.98257 -62.16381 33919 ft 448 kts 326°
2026-04-29 17:37 12.03544 -62.19805 33921 ft 443 kts 326°
2026-04-29 17:37 12.08735 -62.23169 33923 ft 444 kts 326°
2026-04-29 17:38 12.13966 -62.26560 33922 ft 443 kts 326°
2026-04-29 17:38 12.19171 -62.29935 33922 ft 443 kts 326°
2026-04-29 17:39 12.24418 -62.33340 33923 ft 444 kts 326°
2026-04-29 17:39 12.29635 -62.36726 33921 ft 443 kts 326°
2026-04-29 17:40 12.34845 -62.40109 33922 ft 442 kts 326°
2026-04-29 17:40 12.40042 -62.43485 33921 ft 442 kts 326°
2026-04-29 17:41 12.45248 -62.46868 33920 ft 442 kts 326°
2026-04-29 17:41 12.50479 -62.50269 33918 ft 443 kts 326°
2026-04-29 17:42 12.55677 -62.53652 33916 ft 441 kts 326°
2026-04-29 17:42 12.60888 -62.57044 33916 ft 442 kts 326°
2026-04-29 17:43 12.66087 -62.60430 33917 ft 442 kts 326°
2026-04-29 17:43 12.71290 -62.63818 33919 ft 441 kts 326°
2026-04-29 17:44 12.76461 -62.67187 33920 ft 442 kts 325°
2026-04-29 17:44 12.81652 -62.70572 33921 ft 442 kts 325°
2026-04-29 17:45 12.86857 -62.73970 33920 ft 441 kts 325°
2026-04-29 17:45 12.92061 -62.77366 33919 ft 441 kts 325°
2026-04-29 17:46 12.97230 -62.80741 33909 ft 440 kts 325°
2026-04-29 17:46 13.02402 -62.84120 33907 ft 440 kts 325°
2026-04-29 17:47 13.07593 -62.87514 33908 ft 442 kts 325°
2026-04-29 17:47 13.12755 -62.90890 33908 ft 441 kts 324°
2026-04-29 17:48 13.17941 -62.94285 33908 ft 441 kts 325°
2026-04-29 17:48 13.23114 -62.97672 33910 ft 440 kts 325°
2026-04-29 17:49 13.28287 -63.01061 33911 ft 440 kts 324°
2026-04-29 17:49 13.33461 -63.04452 33913 ft 440 kts 324°
2026-04-29 17:50 13.38595 -63.07819 33913 ft 440 kts 324°
2026-04-29 17:50 13.43757 -63.11205 33911 ft 440 kts 324°
2026-04-29 17:51 13.48933 -63.14603 33913 ft 442 kts 324°
2026-04-29 17:51 13.54124 -63.18012 33914 ft 440 kts 324°
2026-04-29 17:52 13.59277 -63.21398 33917 ft 439 kts 324°
2026-04-29 17:52 13.64454 -63.24802 33917 ft 441 kts 324°
2026-04-29 17:53 13.69633 -63.28208 33917 ft 439 kts 324°
2026-04-29 17:53 13.74812 -63.31617 33915 ft 441 kts 324°
2026-04-29 17:54 13.79971 -63.35014 33917 ft 441 kts 324°
2026-04-29 17:54 13.85172 -63.38443 33914 ft 440 kts 324°
2026-04-29 17:55 13.90315 -63.41833 33916 ft 440 kts 324°
2026-04-29 17:55 13.95505 -63.45256 33916 ft 440 kts 324°
2026-04-29 17:56 14.00671 -63.48666 33915 ft 439 kts 324°
2026-04-29 17:56 14.05839 -63.52080 33917 ft 441 kts 324°
2026-04-29 17:57 14.10994 -63.55484 33917 ft 442 kts 324°
2026-04-29 17:57 14.16182 -63.58913 33916 ft 441 kts 324°
2026-04-29 17:58 14.21357 -63.62338 33914 ft 440 kts 324°
2026-04-29 17:58 14.26571 -63.65789 33912 ft 443 kts 323°
2026-04-29 17:59 14.31757 -63.69221 33913 ft 439 kts 323°
2026-04-29 17:59 14.36919 -63.72639 33912 ft 444 kts 323°
2026-04-29 18:00 14.42121 -63.76085 33914 ft 441 kts 323°
2026-04-29 18:00 14.47295 -63.79517 33914 ft 444 kts 323°
2026-04-29 18:01 14.52495 -63.82966 33916 ft 442 kts 323°
2026-04-29 18:01 14.57715 -63.86432 33924 ft 443 kts 323°
2026-04-29 18:02 14.62880 -63.89865 33935 ft 444 kts 323°
2026-04-29 18:02 14.68125 -63.93351 33933 ft 444 kts 323°
2026-04-29 18:03 14.73303 -63.96793 33930 ft 442 kts 323°
2026-04-29 18:03 14.78488 -64.00245 33932 ft 444 kts 323°
2026-04-29 18:04 14.83693 -64.03707 33940 ft 443 kts 323°
2026-04-29 18:04 14.88879 -64.07162 33944 ft 442 kts 323°
2026-04-29 18:05 14.94085 -64.10633 33947 ft 444 kts 323°
2026-04-29 18:05 14.98971 -64.14455 33943 ft 438 kts 311°
2026-04-29 18:06 15.02552 -64.19416 33943 ft 430 kts 298°
2026-04-29 18:06 15.05412 -64.24778 33934 ft 429 kts 296°
2026-04-29 18:07 15.08235 -64.30344 33929 ft 431 kts 295°
2026-04-29 18:07 15.11013 -64.35812 33926 ft 428 kts 295°
2026-04-29 18:08 15.13806 -64.41280 33927 ft 429 kts 295°
2026-04-29 18:08 15.16584 -64.46691 33927 ft 428 kts 296°
2026-04-29 18:09 15.19404 -64.52178 33928 ft 427 kts 296°
2026-04-29 18:09 15.22187 -64.57585 33926 ft 427 kts 295°
2026-04-29 18:10 15.24983 -64.63018 33926 ft 427 kts 296°
2026-04-29 18:10 15.27764 -64.68432 33926 ft 427 kts 295°
2026-04-29 18:11 15.30542 -64.73846 33925 ft 425 kts 295°
2026-04-29 18:11 15.33326 -64.79276 33926 ft 426 kts 295°
2026-04-29 18:12 15.36107 -64.84709 33926 ft 426 kts 295°
2026-04-29 18:12 15.38869 -64.90104 33925 ft 424 kts 295°
2026-04-29 18:13 15.41638 -64.95520 33926 ft 426 kts 295°
2026-04-29 18:13 15.44387 -65.00895 33930 ft 422 kts 295°
2026-04-29 18:14 15.47149 -65.06297 33931 ft 425 kts 295°
2026-04-29 18:14 15.49902 -65.11685 33936 ft 422 kts 295°
2026-04-29 18:15 15.52631 -65.17034 33934 ft 423 kts 295°
2026-04-29 18:15 15.55385 -65.22443 33934 ft 425 kts 295°
2026-04-29 18:16 15.58139 -65.27849 33937 ft 425 kts 295°
2026-04-29 18:16 15.60889 -65.33249 33934 ft 423 kts 295°
2026-04-29 18:17 15.63631 -65.38635 33939 ft 423 kts 295°
2026-04-29 18:17 15.66352 -65.44001 33938 ft 422 kts 294°
2026-04-29 18:18 15.68466 -65.49654 33939 ft 420 kts 283°
2026-04-29 18:18 15.69401 -65.55632 33941 ft 419 kts 275°
2026-04-29 18:19 15.69878 -65.61650 33942 ft 419 kts 274°
2026-04-29 18:19 15.70298 -65.67696 33937 ft 421 kts 274°
2026-04-29 18:20 15.70730 -65.73749 33936 ft 421 kts 274°
2026-04-29 18:20 15.71178 -65.79802 33929 ft 419 kts 274°
2026-04-29 18:21 15.71630 -65.85818 33920 ft 421 kts 274°
2026-04-29 18:21 15.72086 -65.91886 33918 ft 421 kts 274°
2026-04-29 18:22 15.72538 -65.97926 33920 ft 421 kts 274°
2026-04-29 18:22 15.72991 -66.03999 33917 ft 421 kts 274°
2026-04-29 18:23 15.73439 -66.10016 33919 ft 420 kts 274°
2026-04-29 18:23 15.73889 -66.16050 33920 ft 419 kts 274°
2026-04-29 18:24 15.74337 -66.22098 33920 ft 421 kts 274°
2026-04-29 18:24 15.74780 -66.28104 33918 ft 419 kts 274°
2026-04-29 18:25 15.75225 -66.34149 33922 ft 420 kts 274°
2026-04-29 18:25 15.75666 -66.40150 33920 ft 420 kts 274°
2026-04-29 18:26 15.76108 -66.46197 33920 ft 420 kts 274°
2026-04-29 18:26 15.76548 -66.52245 33921 ft 420 kts 274°
2026-04-29 18:27 15.76985 -66.58267 33921 ft 420 kts 274°
2026-04-29 18:27 15.77419 -66.64286 33923 ft 419 kts 274°
2026-04-29 18:28 15.77850 -66.70309 33923 ft 420 kts 274°
2026-04-29 18:28 15.78283 -66.76355 33923 ft 419 kts 274°
2026-04-29 18:29 15.78714 -66.82383 33923 ft 419 kts 274°
2026-04-29 18:29 15.79144 -66.88415 33922 ft 420 kts 274°
2026-04-29 18:30 15.79569 -66.94429 33925 ft 419 kts 274°
2026-04-29 18:30 15.79993 -67.00468 33924 ft 419 kts 274°
2026-04-29 18:31 15.80416 -67.06487 33924 ft 419 kts 274°
2026-04-29 18:31 15.80836 -67.12486 33924 ft 418 kts 274°
2026-04-29 18:32 15.81256 -67.18523 33924 ft 419 kts 274°
2026-04-29 18:32 15.81884 -67.27563 33924 ft 417 kts 274°
2026-04-29 18:33 15.82229 -67.32563 33924 ft 418 kts 274°
2026-04-29 18:33 15.82467 -67.38556 33922 ft 417 kts 268°
2026-04-29 18:34 15.81897 -67.42510 33925 ft 418 kts 256°
2026-04-29 18:34 15.81292 -67.44420 33922 ft 421 kts 251°
2026-04-29 18:34 15.77981 -67.50633 33922 ft 426 kts 236°
2026-04-29 18:35 15.73551 -67.54842 33925 ft 436 kts 219°
2026-04-29 18:35 15.68247 -67.57968 33920 ft 442 kts 213°
2026-04-29 18:36 15.62706 -67.60808 33918 ft 443 kts 212°
2026-04-29 18:36 15.57142 -67.63616 33914 ft 442 kts 212°
2026-04-29 18:37 15.51603 -67.66434 33911 ft 442 kts 212°
2026-04-29 18:37 15.46091 -67.69257 33907 ft 442 kts 212°
2026-04-29 18:38 15.40537 -67.72111 33903 ft 442 kts 212°
2026-04-29 18:38 15.35036 -67.74942 33905 ft 442 kts 212°
2026-04-29 18:39 15.29503 -67.77789 33903 ft 441 kts 212°
2026-04-29 18:39 15.23995 -67.80621 33905 ft 442 kts 212°
2026-04-29 18:40 15.18456 -67.83469 33904 ft 442 kts 212°
2026-04-29 18:40 15.12953 -67.86296 33904 ft 442 kts 212°
2026-04-29 18:41 15.01925 -67.91957 33906 ft 441 kts 212°
2026-04-29 18:42 14.96396 -67.94792 33902 ft 441 kts 213°
2026-04-29 18:42 14.90875 -67.97620 33902 ft 441 kts 212°
2026-04-29 18:43 14.85370 -68.00442 33900 ft 442 kts 212°
2026-04-29 18:43 14.79834 -68.03278 33900 ft 443 kts 212°
2026-04-29 18:44 14.74318 -68.06102 33897 ft 442 kts 212°
2026-04-29 18:44 14.68761 -68.08942 33899 ft 443 kts 212°
2026-04-29 18:45 14.63207 -68.11781 33898 ft 444 kts 212°
2026-04-29 18:45 14.57685 -68.14599 33902 ft 443 kts 212°
2026-04-29 18:46 14.52142 -68.17429 33904 ft 444 kts 212°
2026-04-29 18:46 14.46561 -68.20278 33905 ft 445 kts 212°
2026-04-29 18:47 14.40995 -68.23116 33904 ft 445 kts 212°
2026-04-29 18:47 14.35437 -68.25947 33902 ft 444 kts 212°
2026-04-29 18:48 14.29895 -68.28770 33900 ft 445 kts 212°
2026-04-29 18:48 14.24314 -68.31612 33901 ft 444 kts 212°
2026-04-29 18:49 14.18732 -68.34451 33896 ft 444 kts 212°
2026-04-29 18:49 14.13160 -68.37284 33892 ft 446 kts 212°
2026-04-29 18:50 14.07581 -68.40119 33885 ft 445 kts 212°
2026-04-29 18:50 14.02024 -68.42941 33884 ft 446 kts 212°
2026-04-29 18:51 13.96420 -68.45787 33887 ft 446 kts 212°
2026-04-29 18:51 13.90833 -68.48621 33884 ft 447 kts 212°
2026-04-29 18:52 13.85217 -68.51470 33883 ft 446 kts 212°
2026-04-29 18:52 13.79656 -68.54288 33880 ft 446 kts 212°
2026-04-29 18:53 13.74047 -68.57129 33702 ft 443 kts 212°
2026-04-29 18:53 13.71293 -68.58520 33187 ft 438 kts 212°
2026-04-29 18:53 13.68557 -68.59905 32544 ft 439 kts 211°
2026-04-29 18:54 13.65925 -68.61237 31860 ft 440 kts 211°
2026-04-29 18:54 13.63161 -68.62637 31071 ft 442 kts 211°
2026-04-29 18:54 13.60364 -68.64054 30232 ft 444 kts 210°
2026-04-29 18:54 13.57607 -68.65450 29373 ft 447 kts 209°
2026-04-29 18:55 13.54803 -68.66869 28470 ft 450 kts 208°
2026-04-29 18:55 13.51958 -68.68308 27516 ft 454 kts 208°
2026-04-29 18:55 13.49097 -68.69753 26519 ft 457 kts 208°
2026-04-29 18:55 13.46213 -68.71210 25465 ft 462 kts 207°
2026-04-29 18:56 13.43323 -68.72670 24389 ft 466 kts 207°
2026-04-29 18:56 13.40400 -68.74145 23425 ft 466 kts 207°
2026-04-29 18:56 13.37487 -68.75614 22746 ft 460 kts 207°
2026-04-29 18:56 13.34604 -68.77068 22042 ft 455 kts 206°
2026-04-29 18:57 13.31778 -68.78493 21313 ft 452 kts 206°
2026-04-29 18:57 13.28931 -68.79928 20549 ft 449 kts 206°
2026-04-29 18:57 13.26143 -68.81332 19784 ft 446 kts 206°
2026-04-29 18:57 13.23337 -68.82747 19003 ft 444 kts 206°
2026-04-29 18:58 13.20573 -68.84140 18222 ft 441 kts 206°
2026-04-29 18:58 13.17797 -68.85540 17434 ft 439 kts 205°
2026-04-29 18:58 13.15072 -68.86915 16660 ft 436 kts 205°
2026-04-29 18:58 13.12325 -68.88300 15875 ft 433 kts 205°
2026-04-29 18:59 13.09603 -68.89672 15106 ft 430 kts 205°
2026-04-29 18:59 13.06926 -68.91021 14350 ft 427 kts 205°
2026-04-29 18:59 13.04261 -68.92363 13592 ft 423 kts 205°
2026-04-29 18:59 13.01585 -68.93709 12820 ft 420 kts 205°
2026-04-29 19:00 12.98980 -68.95019 12067 ft 417 kts 204°
2026-04-29 19:00 12.96372 -68.96332 11375 ft 412 kts 204°
2026-04-29 19:00 12.93834 -68.97609 10970 ft 399 kts 204°
2026-04-29 19:00 12.91360 -68.98856 10788 ft 382 kts 204°
2026-04-29 19:01 12.89002 -69.00046 10635 ft 365 kts 204°
2026-04-29 19:01 12.86749 -69.01181 10466 ft 350 kts 204°
2026-04-29 19:01 12.84596 -69.02265 10298 ft 337 kts 204°
2026-04-29 19:01 12.82513 -69.03313 10128 ft 325 kts 203°
2026-04-29 19:02 12.80488 -69.04330 9916 ft 315 kts 203°
2026-04-29 19:02 12.79201 -69.04975 9865 ft 306 kts 203°
2026-04-29 19:02 12.76721 -69.06222 9858 ft 287 kts 202°
2026-04-29 19:02 12.74916 -69.07127 9872 ft 285 kts 202°
2026-04-29 19:03 12.73125 -69.08022 9973 ft 287 kts 202°
2026-04-29 19:03 12.71301 -69.08933 9988 ft 288 kts 202°
2026-04-29 19:03 12.69484 -69.09842 9991 ft 288 kts 203°
2026-04-29 19:03 12.67683 -69.10744 9992 ft 288 kts 203°
2026-04-29 19:04 12.65868 -69.11655 9989 ft 289 kts 203°
2026-04-29 19:04 12.64062 -69.12560 9966 ft 287 kts 203°
2026-04-29 19:04 12.62257 -69.13467 9665 ft 285 kts 202°
2026-04-29 19:04 12.60473 -69.14360 9258 ft 287 kts 202°
2026-04-29 19:05 12.58653 -69.15270 8892 ft 286 kts 203°
2026-04-29 19:05 12.56879 -69.16157 8535 ft 285 kts 202°
2026-04-29 19:05 12.55031 -69.16876 8286 ft 277 kts 189°
2026-04-29 19:05 12.53117 -69.17020 8285 ft 272 kts 173°
2026-04-29 19:06 12.51226 -69.16859 8283 ft 273 kts 171°
2026-04-29 19:06 12.49307 -69.16666 8287 ft 273 kts 171°
2026-04-29 19:06 12.45514 -69.16390 8286 ft 273 kts 173°
2026-04-29 19:07 12.43607 -69.16281 8286 ft 272 kts 173°
2026-04-29 19:07 12.42339 -69.16210 8289 ft 273 kts 173°
2026-04-29 19:07 12.39782 -69.16067 8282 ft 272 kts 173°
2026-04-29 19:07 12.37890 -69.15958 8289 ft 272 kts 173°
2026-04-29 19:08 12.35964 -69.15848 8287 ft 272 kts 173°
2026-04-29 19:08 12.34060 -69.15739 8275 ft 269 kts 173°
2026-04-29 19:08 12.32203 -69.15635 8269 ft 258 kts 173°
2026-04-29 19:08 12.30444 -69.15537 8095 ft 255 kts 173°
2026-04-29 19:09 12.28581 -69.15424 7169 ft 279 kts 173°
2026-04-29 19:09 12.26584 -69.15288 6249 ft 298 kts 171°
2026-04-29 19:09 12.24529 -69.14861 5357 ft 309 kts 156°
2026-04-29 19:09 12.22736 -69.13631 4428 ft 314 kts 129°
2026-04-29 19:10 12.21728 -69.11682 3541 ft 318 kts 105°
2026-04-29 19:10 12.21310 -69.09450 2691 ft 324 kts 97°
2026-04-29 19:10 12.21009 -69.07172 2205 ft 316 kts 97°
2026-04-29 19:10 12.20669 -69.05053 2442 ft 284 kts 98°
2026-04-29 19:11 12.20428 -69.03168 2508 ft 252 kts 89°
2026-04-29 19:11 12.21183 -69.01776 2478 ft 237 kts
2026-04-29 19:11 12.22380 -69.02939 1456 ft 281 kts 250°
2026-04-29 19:11 12.25763 -69.07532 7436 ft 311 kts 165°
2026-04-29 19:12 12.20249 -69.02409 989 ft 145 kts 101°
2026-04-29 19:12 12.20204 -69.02241 1027 ft 137 kts 103°
2026-04-29 19:12 12.20044 -69.01665 942 ft 130 kts 100°
2026-04-29 19:13 12.20262 -69.02472 998 ft 147 kts 102°
2026-04-29 19:13 12.20206 -69.02241 991 ft 142 kts 103°
2026-04-29 19:14 12.19990 -69.01237 1019 ft 160 kts 100°
2026-04-29 19:14 12.19776 -69.00173 834 ft 144 kts 99°
2026-04-29 19:14 12.19579 -68.99219 584 ft 131 kts 101°
2026-04-29 19:14 12.19388 -68.98340 393 ft 122 kts 101°
2026-04-29 19:15 12.19213 -68.97505 219 ft 117 kts 100°
2026-04-29 19:15 12.19043 -68.96694 96 ft 114 kts 101°
2026-04-29 19:15 12.18884 -68.95938 45 ft 101 kts 100°
2026-04-29 19:15 12.18771 -68.95386 42 ft 37 kts 103°
2026-04-29 19:16 12.18739 -68.95229 42 ft 21 kts 101°
2026-04-29 19:16 12.18713 -68.95081 43 ft 21 kts 99°